This is the latest recevied weather packets stored in our database for station/object ZS1OSS-13. If no packets are shown the sender has not sent any weather packets the latest 10 day(s).
| Time | Temp. | Humidity | Pressure | Rain* | Wind** | Luminosity | Snow |
|---|---|---|---|---|---|---|---|
| 1777530737 | 15° C | 86% | 1014.9 hPa | 0 mm | - | 39 W/m² | - |
| 1777530435 | 15° C | 86% | 1014.7 hPa | 0 mm | - | 35 W/m² | - |
| 1777530130 | 15° C | 87% | 1014.8 hPa | 0 mm | - | 32 W/m² | - |
| 1777529828 | 14.44° C | 87% | 1014.8 hPa | 0 mm | - | 31 W/m² | - |
| 1777529524 | 14.44° C | 87% | 1014.8 hPa | 0 mm | - | 29 W/m² | - |
| 1777529222 | 14.44° C | 88% | 1014.8 hPa | 0 mm | - | 27 W/m² | - |
| 1777528917 | 14.44° C | 88% | 1014.9 hPa | 0 mm | - | 24 W/m² | - |
| 1777528613 | 14.44° C | 88% | 1014.9 hPa | 0 mm | - | 23 W/m² | - |
| 1777528311 | 14.44° C | 88% | 1015 hPa | 0 mm | - | 20 W/m² | - |
| 1777528009 | 14.44° C | 88% | 1014.8 hPa | 0 mm | - | 18 W/m² | - |
| 1777527704 | 14.44° C | 88% | 1015.1 hPa | 0 mm | - | 13 W/m² | - |
| 1777527400 | 14.44° C | 87% | 1014.6 hPa | 0 mm | - | 10 W/m² | - |
| 1777527096 | 14.44° C | 87% | 1014.8 hPa | 0 mm | - | 8 W/m² | - |
| 1777526791 | 14.44° C | 86% | 1014.7 hPa | 0 mm | - | 4 W/m² | - |
| 1777526486 | 14.44° C | 86% | 1014.7 hPa | 0 mm | - | 3 W/m² | - |
| 1777526181 | 14.44° C | 85% | 1014.4 hPa | 0 mm | - | 0 W/m² | - |
| 1777525877 | 14.44° C | 85% | 1014.5 hPa | 0 mm | - | 0 W/m² | - |
| 1777525575 | 14.44° C | 84% | 1014.6 hPa | 0 mm | - | 0 W/m² | - |
| 1777525273 | 14.44° C | 83% | 1014.5 hPa | 0 mm | - | 0 W/m² | - |
| 1777524968 | 14.44° C | 82% | 1014.4 hPa | 0 mm | - | 0 W/m² | - |
| 1777524666 | 14.44° C | 81% | 1014.6 hPa | 0 mm | - | 0 W/m² | - |
| 1777524364 | 14.44° C | 81% | 1014.2 hPa | 0 mm | - | 0 W/m² | - |
| 1777524058 | 14.44° C | 80% | 1014.3 hPa | 0 mm | - | 0 W/m² | - |
| 1777523756 | 14.44° C | 80% | 1014.1 hPa | 0 mm | - | 0 W/m² | - |
| 1777523452 | 14.44° C | 81% | 1014.2 hPa | 0 mm | - | 0 W/m² | - |
* Rain latest hour (hover to see other rain measurements)
** Current wind speed in m/s (hover to see current wind gust speed)